Regional Weather Roundup
Issued by NWS

Home | Current Version | Previous Version | Graphics & Text | Print | Product List | Glossary On
Versions: 1 2 3 4 5 6 7 8 9 10 11 12 13 14 15 16 17 18 19 20 21 22 23 24 25 26 27 28 29 30 31 32 33 34 35 36 37 38 39 40 41 42 43 44 45 46 47 48 49 50
915
ASUS45 KCYS 241510
RWRWY

WYOMING REGIONAL WEATHER ROUNDUP
NATIONAL WEATHER SERVICE CHEYENNE WY
800 AM MST FRI FEB 24 2017

NOTE:  "FAIR" INDICATES FEW OR NO CLOUDS BELOW 12,000 FEET
WITH NO SIGNIFICANT WEATHER AND/OR OBSTRUCTIONS TO VISIBILITY.

WYZ001-241600-
YELLOWSTONE NATIONAL PARK

CITY           SKY/WX    TMP DP  RH WIND       PRES   REMARKS
LK YELLOWSTONE   N/A      5   2  87 CALM      29.82R
W YELLOWSTONE  NOT AVBL

$$
WYZ002>013-054>058-071-098>099-241600-
NORTHERN WYOMING

CITY           SKY/WX    TMP DP  RH WIND       PRES   REMARKS
JACKSON        CLOUDY    16  12  86 SW6       29.86R WCI   7
CODY           FLURRIES  17  13  84 SW3       29.92R
GREYBULL       LGT SNOW  23  20  88 S3        29.96R FOG
WORLAND        LGT SNOW  19  19 100 CALM      29.95R FOG
SHERIDAN       CLOUDY    21  15  78 SE10      29.96R WCI  10
BUFFALO        LGT SNOW  20  15  81 S7        29.92R WCI  11
GILLETTE       LGT SNOW  21  18  88 SE6       29.96R FOG     WCI  13
HULETT         CLOUDY    21  18  86 MISG      29.99R
NEWCASTLE      LGT SNOW  21  19  93 SE3       29.99R

$$
WYZ014>020-022>026-101>103-241600-
CENTRAL WYOMING

CITY           SKY/WX    TMP DP  RH WIND       PRES   REMARKS
BIG PINEY      CLOUDY    12   7  80 CALM      29.84R
PINEDALE       LGT SNOW  14  10  85 SW9       29.84R WCI   2
DUBOIS         LGT SNOW  10   9  92 CALM      29.81R
LANDER         CLOUDY    15  13  91 CALM      29.89R
RIVERTON       CLOUDY    16  14  92 SW3       29.91R
CASPER         CLOUDY    14  11  87 VRB5      29.91R WCI   6
DOUGLAS        LGT SNOW  14  10  84 E7        29.95R FOG     WCI   4

$$
WYZ021-027>030-104>119-241600-
SOUTHERN WYOMING

CITY           SKY/WX    TMP DP  RH WIND       PRES   REMARKS
EVANSTON       CLOUDY    12   7  80 W12       29.86R WCI  -2
FORT BRIDGER   FAIR      11  10  94 W13       29.88R WCI  -4
ROCK SPRINGS   CLOUDY    12   8  84 SW3       29.86R FOG
DIXON          LGT SNOW  14   9  82 W7        29.87R WCI   4
RAWLINS        SNOW      12   7  80 NE16      29.81R VSB 1/2 WCI  -5
SARATOGA       CLOUDY    14   9  79 W8G16     29.79R WCI   3
LARAMIE        CLOUDY     6   3  87 W3        29.80R
CHEYENNE       LGT SNOW  14  10  84 NE6       29.87R FOG     WCI   5
TORRINGTON     LGT SNOW  19  15  84 NW3       29.98R FOG
PINE BLUFFS    CLOUDY    18  14  86 N7        29.92R WCI   8

$$




USA.gov is the U.S. government's official web portal to all federal, state and local government web resources and services.